Hourly Data Report for October 25, 2016

All times are specified in Local Standard Time (LST). Add 1 hour to adjust for Daylight Saving Time where and when it is observed.

PANGNIRTUNG
NUNAVUT

66°08'36.300" N
65°42'40.500" W
22.60 m
2403049
71826
WXP

Download Data

Hourly Data (October 2016)
Hourly Data Report for October 25, 2016
Temp Definition
°C
Dew Point Temp Definition
°C
Rel Hum Definition
%
Wind Dir Definition
10's deg

Wind Spd Definition
km/h
Visibility Definition
km
Stn Press Definition
kPa
Hmdx Definition


Wind Chill Definition


Weather Definition


TIME
00:00 -10.3 -13.9 75 23 4   101.12   -13 LegendNANA
01:00 -10.4 -15.3 67 21 2   101.11   -12 LegendNANA
02:00 -9.9 -14.3 70 14 6   101.13   -13 LegendNANA
03:00 -9.8 -14.2 70 12 10   101.14   -15 LegendNANA
04:00 -10.3 -16.1 62 12 7   101.17   -14 LegendNANA
05:00 -10.5 -14.6 71 29 2   101.20   -12 LegendNANA
06:00 -10.4 -13.8 76 27 2   101.21   -12 LegendNANA
07:00 -10.1 -13.9 74 25 3   101.27   -12 LegendNANA
08:00 -9.5 -13.7 72 11 4   101.26   -12 LegendNANA
09:00 -10.3 -14.0 75 23 2   101.27   -11 LegendNANA
10:00 -10.0 -13.6 75 27 3   101.26   -12 LegendNANA
11:00 -9.2 -13.2 73 15 1   101.27   -10 LegendNANA
12:00 -9.9 -13.8 73 10 1   101.30   -10 LegendNANA
13:00 -10.0 -13.6 75 13 5   101.33   -13 LegendNANA
14:00 -9.6 -13.3 74 17 1   101.34   -10 LegendNANA
15:00 -10.0 -13.2 77 19 4   101.36   -12 LegendNANA
16:00 -9.7 -13.2 76 25 2   101.38   -11 LegendNANA
17:00 -9.6 -13.7 72 22 2   101.38   -11 LegendNANA
18:00 -9.4 -12.2 80 23 18   101.39   -17 LegendNANA
19:00 -11.0 -14.4 76 18 4   101.39   -13 LegendNANA
20:00 -11.3 -15.2 73 17 8   101.42   -16 LegendNANA
21:00 -11.4 -14.4 78 15 4   101.44   -14 LegendNANA
22:00 -11.9 -14.6 80 20 4   101.43   -14 LegendNANA
23:00 -11.2 -13.2 85 33 6   101.46   -15 LegendNANA

Notes on Data Quality.

Legend

  • E = Estimated
  • M = Missing
  • NA = Not Available
  • ‡ = Partner data that is not subject to review by the National Climate Archives
Date modified: